User: anonymous   Login
Location: Unspecified
(0.0000°N, 0.0000°E)
Time: 17:03:28
(UTC+00:00)
Language:

CUTE 1.7 + AOD 2 - Orbit

View from above orbital plane
View from above orbital plane
View from above satellite
View from above satellite

Ground track
Ground track

The orbit data is extracted from the following two-line orbital elements,

1 32785U 08021C   14330.82879758  .00002187  00000-0  25616-3 0  1253
2 32785 097.6786 016.6397 0013888 020.2637 031.7987 14.85941781356175
Epoch (UTC): 26 November 2014 19:53:28
Eccentricity: 0.0013888
inclination: 97.6786°
perigee height: 601 km
apogee height: 620 km
right ascension of ascending node: 16.6397°
argument of perigee: 20.2637°
revolutions per day: 14.85941781
mean anomaly at epoch: 31.7987°
orbit number at epoch: 35617

The dashed part of the orbit path shows where the satellite is in the earth's shadow,  

DLR